Location: Bad Rothenbrunn
(47.2167°N, 11.2167°E)
Time: 05:15:23
(UTC+00:00)

Cosmos 1633 Rocket - Pass Details

Date: 03 March 2021
Orbit: 606 x 624 km, 82.5° (Epoch: 22 April)

Event Time Altitude Azimuth Distance (km) Brightness Sun altitude
Rises 17:56:05 0° 191° (S) 2,889 6.6 -9.7°
Reaches altitude 10° 17:58:18 10° 192° (SSW) 1,990 5.8 -10.1°
Maximum altitude 18:02:43 79° 279° (W) 643 3.2 -10.9°
Drops below altitude 10° 18:07:11 10° 7° (N) 2,009 5.6 -11.6°
Sets 18:09:26 0° 9° (N) 2,921 6.5 -12.0°
